GW7137 Weather Reports


time (UTC)temp
C
wind
direction
speed
KPH
gust
KPH
rain 1hr
cm
rain 24hr
cm
rain mn
cm
humidity
%
barometer
mb
20260508012824 15 330 3.2 3.2 0.00 0.00 0.00 77 1014.9
20260508012311 15 306 3.2 3.2 0.00 0.00 0.00 81 1015.0
20260508011812 15 306 3.2 3.2 0.00 0.00 0.00 81 1015.1
20260508011300 15 306 0.0 0.0 0.00 0.00 0.00 81 1015.2
20260508010747 15 306 3.2 3.2 0.00 0.00 0.00 79 1015.2
20260508010247 15 306 3.2 3.2 0.00 0.00 0.00 79 1015.1
20260508005734 14 306 0.0 0.0 0.00 0.00 0.00 80 1015.1
20260508005234 14 306 3.2 3.2 0.00 0.00 0.00 81 1015.1
20260508004721 14 306 3.2 3.2 0.00 0.00 0.00 81 1015.1
20260508004222 14 306 0.0 0.0 0.00 0.00 0.00 82 1015.2
20260508003708 14 306 3.2 3.2 0.00 0.00 0.00 82 1015.2
20260508003210 14 306 3.2 3.2 0.00 0.00 0.00 82 1015.4
20260508002657 14 306 3.2 3.2 0.00 0.00 0.00 81 1015.5
20260508002157 14 306 3.2 3.2 0.00 0.00 0.00 81 1015.5
20260508001656 14 306 3.2 3.2 0.00 0.00 0.00 81 1015.5
20260508001156 14 306 3.2 3.2 0.00 0.00 0.00 81 1015.6
20260508000657 14 306 3.2 3.2 0.00 0.00 0.00 83 1015.7
20260508000144 14 306 3.2 3.2 0.00 0.00 0.00 81 1015.8
20260507235644 14 306 3.2 3.2 0.00 0.00 0.00 81 1015.8
20260507235211 14 306 4.8 4.8 0.00 0.00 0.00 82 1015.8
20260507234711 14 306 3.2 3.2 0.00 0.00 0.00 81 1015.9
20260507234159 15 324 0.0 0.0 0.00 0.00 0.00 81 1015.9
20260507233658 14 330 3.2 3.2 0.00 0.00 0.00 80 1015.8
20260507233145 14 312 3.2 3.2 0.00 0.00 0.00 83 1015.9
20260507232633 14 312 3.2 3.2 0.00 0.00 0.00 82 1016.1
20260507232134 14 312 3.2 3.2 0.00 0.00 0.00 82 1016.2
20260507231621 14 312 3.2 3.2 0.00 0.00 0.00 82 1016.3
20260507231120 14 312 3.2 3.2 0.00 0.00 0.00 83 1016.2
20260507230529 14 312 3.2 3.2 0.00 0.00 0.00 82 1016.2
20260507230029 14 312 3.2 3.2 0.00 0.00 0.00 82 1016.2
20260507225516 15 312 3.2 3.2 0.00 0.00 0.00 81 1016.3
20260507225019 14 318 3.2 3.2 0.00 0.00 0.00 82 1016.3
20260507224505 15 314 3.2 3.2 0.00 0.00 0.00 81 1016.4
20260507223952 14 318 3.2 3.2 0.00 0.00 0.00 81 1016.5
20260507223452 15 306 4.8 4.8 0.00 0.00 0.00 82 1016.5
20260507222939 15 306 3.2 3.2 0.00 0.00 0.00 80 1016.4
20260507222439 15 319 3.2 3.2 0.00 0.00 0.00 81 1016.4
20260507221926 14 312 4.8 4.8 0.00 0.00 0.00 81 1016.5
20260507221427 15 312 3.2 3.2 0.00 0.00 0.00 80 1016.4
20260507220914 15 318 3.2 3.2 0.00 0.00 0.00 80 1016.4
20260507220418 15 318 3.2 3.2 0.00 0.00 0.00 79 1016.5
20260507215903 15 318 0.0 0.0 0.00 0.00 0.00 79 1016.4
20260507215352 15 318 3.2 3.2 0.00 0.00 0.00 79 1016.4
20260507214849 15 318 3.2 3.2 0.00 0.00 0.00 78 1016.4
20260507214337 15 342 3.2 3.2 0.00 0.00 0.00 78 1016.5
20260507213837 16 11 3.2 3.2 0.00 0.00 0.00 76 1016.7
20260507213325 16 26 3.2 3.2 0.00 0.00 0.00 75 1016.7
20260507212826 16 60 0.0 0.0 0.00 0.00 0.00 74 1016.7
20260507212313 16 14 0.0 0.0 0.00 0.00 0.00 75 1016.7
20260507211800 16 318 3.2 3.2 0.00 0.00 0.00 75 1016.7
20260507211301 16 330 3.2 3.2 0.00 0.00 0.00 75 1016.7
20260507210749 16 352 3.2 3.2 0.00 0.00 0.00 74 1016.8
20260507210254 16 348 3.2 3.2 0.00 0.00 0.00 74 1016.8
20260507205739 16 330 3.2 3.2 0.00 0.00 0.00 74 1016.9
20260507205236 16 319 3.2 3.2 0.00 0.00 0.00 74 1016.8
20260507204725 16 318 0.0 0.0 0.00 0.00 0.00 75 1016.8
20260507204212 16 300 3.2 3.2 0.00 0.00 0.00 75 1016.9
20260507203712 16 312 3.2 3.2 0.00 0.00 0.00 75 1016.8
20260507203201 16 330 3.2 3.2 0.00 0.00 0.00 74 1016.8
20260507202703 16 330 0.0 0.0 0.00 0.00 0.00 75 1016.9
20260507202147 16 330 3.2 3.2 0.00 0.00 0.00 73 1016.9
20260507201652 16 335 3.2 3.2 0.00 0.00 0.00 73 1016.8
20260507201136 16 318 3.2 3.2 0.00 0.00 0.00 74 1016.8
20260507200624 16 324 3.2 3.2 0.00 0.00 0.00 73 1016.8
20260507200128 16 336 3.2 3.2 0.00 0.00 0.00 73 1016.9
20260507195609 16 348 3.2 3.2 0.00 0.00 0.00 72 1016.9
20260507195107 16 324 3.2 3.2 0.00 0.00 0.00 73 1016.9
20260507194557 16 330 3.2 3.2 0.00 0.00 0.00 72 1016.8
20260507194107 16 346 6.4 8.0 0.00 0.00 0.00 73 1016.9
20260507193601 16 318 6.4 6.4 0.00 0.00 0.00 73 1016.9
20260507193101 16 318 3.2 3.2 0.00 0.00 0.00 73 1016.9
20260507192541 16 318 3.2 3.2 0.00 0.00 0.00 73 1016.8
20260507192020 16 318 3.2 3.2 0.00 0.00 0.00 73 1016.8
20260507191526 16 318 3.2 3.2 0.00 0.00 0.00 73 1016.8
20260507191007 16 318 4.8 4.8 0.00 0.00 0.00 73 1016.7
20260507190515 16 318 3.2 3.2 0.00 0.00 0.00 72 1016.7
20260507185958 16 318 3.2 3.2 0.00 0.00 0.00 73 1016.7
20260507185453 17 325 6.4 6.4 0.00 0.00 0.00 72 1016.6
20260507184945 17 318 3.2 3.2 0.00 0.00 0.00 72 1016.6
20260507184432 17 318 0.0 0.0 0.00 0.00 0.00 72 1016.5
20260507183932 17 330 0.0 0.0 0.00 0.00 0.00 72 1016.4
20260507183418 17 346 0.0 0.0 0.00 0.00 0.00 72 1016.3
20260507182922 17 336 3.2 3.2 0.00 0.00 0.00 72 1016.4
20260507182411 17 312 3.2 3.2 0.00 0.00 0.00 73 1016.4
20260507181902 17 342 3.2 3.2 0.00 0.00 0.00 72 1016.4
20260507181351 17 12 3.2 3.2 0.00 0.00 0.00 72 1016.4
20260507180841 17 19 3.2 3.2 0.00 0.00 0.00 72 1016.4
20260507180341 17 27 3.2 3.2 0.00 0.00 0.00 71 1016.3
20260507175826 17 33 3.2 3.2 0.00 0.00 0.00 69 1016.2
20260507175330 17 36 3.2 3.2 0.00 0.00 0.00 69 1016.1
20260507174814 17 25 3.2 3.2 0.00 0.00 0.00 68 1016.2
20260507174412 17 36 3.2 3.2 0.00 0.00 0.00 67 1016.3
20260507060602 19 126 0.0 0.0 0.00 0.00 0.00 56 1016.1
20260507060049 18 116 3.2 3.2 0.00 0.00 0.00 59 1016.1
20260507055550 19 128 3.2 3.2 0.00 0.00 0.00 59 1016.1
20260507055049 19 126 3.2 3.2 0.00 0.00 0.00 60 1016.0
20260507054549 19 120 3.2 3.2 0.00 0.00 0.00 59 1015.9
20260507054049 20 120 3.2 3.2 0.00 0.00 0.00 57 1015.7
20260507053549 20 120 0.0 0.0 0.00 0.00 0.00 54 1015.7
20260507053036 20 120 0.0 0.0 0.00 0.00 0.00 54 1015.6
20260507052524 20 48 0.0 0.0 0.00 0.00 0.00 53 1015.6
20260507052025 20 48 3.2 3.2 0.00 0.00 0.00 53 1015.6
20260507051512 20 48 0.0 0.0 0.00 0.00 0.00 53 1015.4
20260507051011 20 48 3.2 3.2 0.00 0.00 0.00 53 1015.5
20260507050459 19 48 0.0 0.0 0.00 0.00 0.00 56 1015.5
20260507045959 18 44 3.2 3.2 0.00 0.00 0.00 58 1015.5
20260507045446 18 20 3.2 3.2 0.00 0.00 0.00 59 1015.4
20260507044934 18 20 0.0 0.0 0.00 0.00 0.00 61 1015.3
20260507044434 18 17 0.0 0.0 0.00 0.00 0.00 61 1015.3
20260507043921 17 17 0.0 0.0 0.00 0.00 0.00 62 1015.3
20260507043421 17 17 0.0 0.0 0.00 0.00 0.00 66 1015.3
20260507042909 16 17 0.0 0.0 0.00 0.00 0.00 63 1015.3
20260507042410 16 319 0.0 0.0 0.00 0.00 0.00 69 1015.4
20260507041857 15 319 3.2 3.2 0.00 0.00 0.00 71 1015.3
20260507041345 15 319 3.2 3.2 0.00 0.00 0.00 74 1015.3
20260507040844 15 324 3.2 3.2 0.00 0.00 0.00 75 1015.3
20260507040332 14 324 3.2 3.2 0.00 0.00 0.00 76 1015.4
20260507035831 14 330 3.2 3.2 0.00 0.00 0.00 78 1015.3
20260507035331 14 330 3.2 3.2 0.00 0.00 0.00 77 1015.4
20260507034831 13 318 3.2 3.2 0.00 0.00 0.00 76 1015.3
20260507034332 14 312 3.2 3.2 0.00 0.00 0.00 77 1015.2
20260507033831 13 306 6.4 6.4 0.00 0.00 0.00 76 1015.2
20260507033331 13 312 6.4 6.4 0.00 0.00 0.00 78 1015.1
20260507032818 13 330 3.2 3.2 0.00 0.00 0.00 80 1015.2
20260507032306 13 330 3.2 3.2 0.00 0.00 0.00 79 1015.1
20260507031754 13 330 3.2 3.2 0.00 0.00 0.00 77 1015.0
20260507031253 13 318 3.2 3.2 0.00 0.00 0.00 80 1015.0
20260507030741 13 318 3.2 3.2 0.00 0.00 0.00 78 1015.0
20260507030241 13 318 3.2 3.2 0.00 0.00 0.00 79 1014.9
20260507025728 13 318 4.8 4.8 0.00 0.00 0.00 78 1014.9
20260507025229 13 318 6.4 6.4 0.00 0.00 0.00 78 1014.9
20260507024717 13 312 4.8 4.8 0.00 0.00 0.00 78 1014.9
20260507024216 13 312 4.8 4.8 0.00 0.00 0.00 79 1014.8
20260507023703 13 318 3.2 3.2 0.00 0.00 0.00 78 1014.7
20260507023151 14 318 4.8 4.8 0.00 0.00 0.00 76 1014.7
20260507022651 14 312 3.2 3.2 0.00 0.00 0.00 77 1014.7
20260507022139 14 318 3.2 3.2 0.00 0.00 0.00 77 1014.7
20260507021639 14 312 6.4 6.4 0.00 0.00 0.00 77 1014.7
20260507021126 14 318 4.8 4.8 0.00 0.00 0.00 77 1014.7
20260507020626 13 312 4.8 4.8 0.00 0.00 0.00 76 1014.7
20260507020114 13 312 3.2 3.2 0.00 0.00 0.00 78 1014.6
20260507015615 13 318 3.2 3.2 0.00 0.00 0.00 76 1014.6
20260507015102 13 312 6.4 6.4 0.00 0.00 0.00 78 1014.5
20260507014550 13 312 3.2 3.2 0.00 0.00 0.00 76 1014.4
20260507014049 14 312 3.2 3.2 0.00 0.00 0.00 73 1014.5
20260507013538 14 306 4.8 4.8 0.00 0.00 0.00 75 1014.3